User: anonymous   Login
Location: Evergreen Manor
(41.4083°N, 81.4939°W)
Time: 13:04:54
(UTC+00:00)
Language:

CZ-4C R/B - Orbit

View from above orbital plane
View from above orbital plane
View from above satellite
View from above satellite

Ground track
Ground track

The orbit data is extracted from the following two-line orbital elements,

1 36416U 10009D   20048.79079539 -.00000077 +00000-0 +14867-4 0  9998
2 36416 063.4269 165.2764 0483141 355.2446 004.4085 13.69563801497826
Epoch (UTC): 17 February 2020 18:58:44
Eccentricity: 0.0483141
inclination: 63.4269°
perigee height: 644 km
apogee height: 1357 km
right ascension of ascending node: 165.2764°
argument of perigee: 355.2446°
revolutions per day: 13.69563801
mean anomaly at epoch: 4.4085°
orbit number at epoch: 49782

The dashed part of the orbit path shows where the satellite is in the earth's shadow,  

DLR